sat.trackr.live / text

‹ back to catalog

STARLINK-5834

NORAD 57071 · 2023-088Z

PAYLOAD ACTIVE UNKNOWN

§ Identity

Operator
Country
US
Launch date
2023-06-22
Launch site
AFWTR
Launch vehicle
Mass (kg)
RCS (m²)

Purposes: comms

External: N2YO · Heavens-Above · Gunter

§ Orbital elements

Epoch: 2026-05-25T00:55:04.177056Z

Period
94.27 min
Inclination
43.0054°
Eccentricity
0.0001220
Mean motion
15.27573947 rev/d
Perigee alt
482.2 km
Apogee alt
483.9 km
Semi-major
6,861.2 km
B*
5.0499e-6
RAAN
25.2303°
Arg perigee
265.9662°
Mean anomaly
94.1050°
Rev number
16,200

§ Raw data

STARLINK-58341 57071U 23088Z   26145.03824279 -.00000123  00000+0  50499-5 0  99922 57071  43.0054  25.2303 0001220 265.9662  94.1050 15.27573947162002

JSON: /api/v1/satellites/57071 · /tle

For live sub-satellite position, see the globe view (requires WebGL).

§ Visibility from observer

Set your observer location to see the next 7 days of passes ≥ 10°. The values pass through the URL so the page stays shareable.

No JS? Fill the form by hand. The geolocation button needs JavaScript.